This is the latest recevied weather packets stored in our database for station/object AJ5AG. If no packets are shown the sender has not sent any weather packets the latest 1 day(s).
| Time | Temp. | Humidity | Pressure | Rain* | Wind** | Luminosity | Snow |
|---|---|---|---|---|---|---|---|
| 1778026430 | 27.22° C | 77% | 1009.1 hPa | 0 mm | 0 m/s | 33 W/m² | - |
| 1778026133 | 27.22° C | 76% | 1009 hPa | 0 mm | 0 m/s | 34 W/m² | - |
| 1778025825 | 27.78° C | 76% | 1009 hPa | 0 mm | 0 m/s | 27 W/m² | - |
| 1778025521 | 27.78° C | 76% | 1009.2 hPa | 0 mm | 0 m/s | 36 W/m² | - |
| 1778025219 | 27.78° C | 75% | 1009.1 hPa | 0 mm | 0 m/s | 36 W/m² | - |
| 1778024916 | 27.78° C | 75% | 1009.1 hPa | 0 mm | 0 m/s | 55 W/m² | - |
| 1778024614 | 27.78° C | 75% | 1009 hPa | 0 mm | 0.45 m/s, 105° | 70 W/m² | - |
| 1778024316 | 27.78° C | 75% | 1009.1 hPa | 0 mm | 0 m/s | 63 W/m² | - |
| 1778024008 | 27.78° C | 74% | 1008.9 hPa | 0 mm | 0 m/s | 42 W/m² | - |
| 1778023705 | 27.78° C | 73% | 1008.8 hPa | 0 mm | 0.45 m/s, 116° | 50 W/m² | - |
| 1778023403 | 28.33° C | 73% | 1009 hPa | 0 mm | 0.45 m/s, 111° | 61 W/m² | - |
| 1778023100 | 28.33° C | 73% | 1009.2 hPa | 0 mm | 0.45 m/s, 107° | 98 W/m² | - |
| 1778022798 | 28.33° C | 73% | 1009 hPa | 0 mm | 0 m/s | 78 W/m² | - |
| 1778022496 | 28.33° C | 73% | 1009.2 hPa | 0 mm | 0 m/s | 70 W/m² | - |
| 1778022192 | 28.33° C | 73% | 1009.1 hPa | 0 mm | 0 m/s | 88 W/m² | - |
| 1778021889 | 28.33° C | 73% | 1009.2 hPa | 0 mm | 0.89 m/s, 103° | 102 W/m² | - |
| 1778021586 | 28.33° C | 74% | 1009.3 hPa | 0 mm | 0 m/s | 82 W/m² | - |
| 1778021281 | 28.33° C | 73% | 1009.2 hPa | 0 mm | 0 m/s | 95 W/m² | - |
| 1778020979 | 28.33° C | 73% | 1009.1 hPa | 0 mm | 0 m/s | 93 W/m² | - |
| 1778020676 | 28.33° C | 73% | 1009 hPa | 0 mm | 0.45 m/s, 131° | 93 W/m² | - |
| 1778020373 | 28.33° C | 73% | 1009.1 hPa | 0 mm | 0.89 m/s, 132° | 101 W/m² | - |
| 1778020069 | 28.33° C | 74% | 1009 hPa | 0 mm | 0 m/s | 122 W/m² | - |
| 1778019765 | 28.89° C | 74% | 1009.2 hPa | 0 mm | 0 m/s | 102 W/m² | - |
| 1778019462 | 28.33° C | 73% | 1009 hPa | 0 mm | 0.45 m/s, 96° | 96 W/m² | - |
| 1778019159 | 28.33° C | 73% | 1009.2 hPa | 0 mm | 0 m/s | 117 W/m² | - |
* Rain latest hour (hover to see other rain measurements)
** Current wind speed in m/s (hover to see current wind gust speed)